Flag for Switzerland Weather past 2 weeks in Allschwil, Basel-Land, Switzerland

Now
90 °F

Scattered clouds.


Feels Like: 91 °F
Forecast: 66 / 94 °F
Wind: 2 mph from Southwest

Location: Bale-Mulhouse

Current Time: Jul 3, 2015 at 12:47:48 PM

Latest Report: Jul 3, 2015 at 12:00 PM


Visibility: 19 mi

Pressure: 30.17 "Hg

Humidity: 39%

Dew point: 62 °F

Location of AllschwilLocation

Historic Weather in Allschwil — Graph

°F

Allschwil temperature yesterday

Maximum temperature yesterday: 96 °F (at 4:00 PM)
Minimum temperature yesterday: 68 °F (at 6:00 AM)
Average temperature yesterday: 82 °F

Past Weeks' High & Low Weather Summary

 TemperatureHumidityPressure
High96 °F (Jul 2, 4:00 PM)98% (Jun 24, 5:00 AM)30.23 "Hg (Jun 24, 5:00 AM)
Low45 °F (Jun 24, 6:00 AM)28% (Jun 26, 3:00 PM)29.75 "Hg (Jun 22, 10:00 PM)
Average67 °F69%30.10 "Hg
* Reported Jun 18 11:00 AM — Jul 3 11:00 AM, Allschwil, Weather by CustomWeather, © 2015

Note: Actual official high and low records may vary slightly from our data, if they occured in-between our weather recording intervals... More about our weather records

Advertising

Allschwil weather history for previous 24 hours

 ConditionsComfort  
Time TempWeatherWind HumidityBarometerVisibility
11:00 AM
Fri, Jul 3
88 °FPassing clouds.2 mph41%30.18 "Hg19 mi
10:00 AM85 °FPassing clouds.3 mph50%30.20 "Hg19 mi
9:00 AM81 °FPassing clouds.8 mph57%30.20 "Hg19 mi
8:00 AM77 °FPassing clouds.5 mph69%30.21 "Hg19 mi
7:00 AM72 °FScattered clouds.5 mph78%30.21 "Hg16 mi
6:00 AM70 °FScattered clouds.2 mph82%30.20 "Hg16 mi
5:00 AM72 °FPassing clouds.5 mph78%30.18 "Hg16 mi
4:00 AM71 °FMild.3 mph82%30.18 "Hg11 mi
3:00 AM73 °FMild.2 mph75%30.17 "Hg12 mi
2:00 AM75 °FMild.2 mph73%30.16 "Hg16 mi
1:00 AM77 °FMild.1 mph67%30.16 "Hg31 mi
12:00 AM79 °FWarm.3 mph60%30.14 "Hg22 mi
11:00 PM
Thu, Jul 2
81 °FPassing clouds.6 mph55%30.13 "Hg16 mi
10:00 PM84 °FPassing clouds.8 mph49%30.10 "Hg16 mi
9:00 PM84 °FPartly sunny.3 mph71%30.06 "Hg19 mi
8:00 PM92 °FPartly sunny.3 mph42%30.03 "Hg22 mi
7:00 PM95 °FScattered clouds.7 mph37%30.03 "Hg22 mi
6:00 PM96 °FScattered clouds.7 mph34%30.02 "Hg19 mi
5:00 PM96 °FPartly sunny.7 mph34%30.02 "Hg19 mi
4:00 PM96 °FPartly sunny.8 mph36%30.02 "Hg19 mi
3:00 PM95 °FPassing clouds.8 mph38%30.03 "Hg19 mi
2:00 PM95 °FPassing clouds.6 mph37%30.04 "Hg19 mi
1:00 PM92 °FPassing clouds.6 mph40%30.06 "Hg19 mi
12:00 PM90 °FPassing clouds.5 mph45%30.06 "Hg19 mi
Weather by CustomWeather, © 2015

See weather overviewHow to use our weather pages